Date String (YYYY-MM-DD hh:mm:ss) UTC,Instrument flags,Ambient pressure (hPa),Sample flow (lpm),Bypass flow (lpm),Sample temperature (°C),Ambient temperature (°C),ASC tube jacket temperature (°C),LED temperature (°C),Box temperature (°C),Sample RH (%),Span deviation,Mass concentration (μg/m³),Mass concentration (μg/m³),Mass concentration (μg/m³)
DateTimeUTC,F1_M11,P_M11,Q1_M11,Q2_M11,T1_M11,T2_M11,T3_M11,T4_M11,T5_M11,U1_M11,ZSPAN_M11,X0_M11,X2_M11,X1_M11
2022-06-07 04:00:00,,0823.6,5.00,0.00,29.7,28.8,00.0,38.6,31.7,20.4,0000.0,0007.35,0002.16,0001.04
2022-06-07 04:01:00,,0823.6,4.99,0.00,29.8,28.8,00.0,38.6,31.7,20.2,0000.0,0007.67,0002.15,0001.04
2022-06-07 04:02:00,,0823.7,4.99,0.00,29.8,28.8,00.0,38.6,31.7,20.0,0000.0,0007.96,0002.15,0001.04
2022-06-07 04:03:00,,0823.6,5.01,0.00,29.8,28.9,00.0,38.6,31.7,19.9,0000.0,0008.08,0002.23,0001.05
2022-06-07 04:04:00,,0823.6,4.99,0.00,29.8,28.9,00.0,38.6,31.7,19.8,0000.0,0008.07,0002.26,0001.04
2022-06-07 04:05:00,,0823.6,4.99,0.00,29.8,28.9,00.0,38.6,31.7,19.8,0000.0,0008.09,0002.29,0001.04
2022-06-07 04:06:00,,0823.6,4.99,0.00,29.8,28.9,00.0,38.6,31.7,19.8,0000.0,0008.18,0002.33,0001.04
2022-06-07 04:07:00,,0823.7,5.00,0.00,29.9,28.9,00.0,38.7,31.8,19.8,0000.0,0008.13,0002.33,0001.04
2022-06-07 04:08:00,,0823.7,4.99,0.00,29.9,28.9,00.0,38.7,31.7,20.0,0000.0,0007.60,0002.32,0001.03
2022-06-07 04:09:00,,0823.8,5.01,0.00,29.9,29.0,00.0,38.7,31.8,20.3,0000.0,0007.67,0002.34,0001.03
2022-06-07 04:10:00,,0823.8,5.01,0.00,29.9,29.0,00.0,38.7,31.8,20.3,0000.0,0007.71,0002.30,0001.02
2022-06-07 04:11:00,,0823.8,5.00,0.00,29.9,29.0,00.0,38.7,31.8,20.4,0000.0,0006.68,0002.22,0001.02
2022-06-07 04:12:00,,0823.8,5.01,0.00,29.9,29.0,00.0,38.7,31.8,21.5,0000.0,0005.94,0002.21,0001.03
2022-06-07 04:13:00,,0823.7,5.01,0.00,29.9,29.0,00.0,38.7,31.8,21.2,0000.0,0005.48,0002.28,0001.03
2022-06-07 04:14:00,,0823.7,5.00,0.00,29.9,29.0,00.0,38.8,31.9,21.0,0000.0,0005.46,0002.29,0001.02
2022-06-07 04:15:00,,0823.7,5.00,0.00,30.0,29.0,00.0,38.8,31.9,20.9,0000.0,0005.40,0002.26,0001.03
2022-06-07 04:16:00,,0823.7,5.01,0.00,30.0,29.0,00.0,38.8,31.9,20.5,0000.0,0006.10,0002.18,0001.03
2022-06-07 04:17:00,,0823.7,5.01,0.00,30.0,29.0,00.0,38.8,31.9,20.5,0000.0,0006.74,0002.14,0001.05
2022-06-07 04:18:00,,0823.7,5.00,0.00,30.0,28.9,00.0,38.8,31.8,20.5,0000.0,0007.18,0002.26,0001.07
2022-06-07 04:19:00,,0823.7,5.01,0.00,29.9,28.0,00.0,38.7,31.6,20.4,0000.0,0007.21,0002.30,0001.06
2022-06-07 04:20:00,,0823.8,4.99,0.00,29.8,27.4,00.0,38.6,31.4,20.4,0000.0,0007.80,0002.31,0001.05
2022-06-07 04:21:00,,0823.8,5.01,0.00,29.7,27.3,00.0,38.6,31.3,20.6,0000.0,0008.18,0002.36,0001.05
2022-06-07 04:22:00,,0823.8,4.99,0.00,29.7,27.3,00.0,38.6,31.3,20.6,0000.0,0008.29,0002.43,0001.06
2022-06-07 04:23:00,,0823.9,5.01,0.00,29.6,27.4,00.0,38.6,31.3,20.7,0000.0,0008.35,0002.43,0001.06
2022-06-07 04:24:00,,0823.8,4.99,0.00,29.6,27.5,00.0,38.6,31.3,20.7,0000.0,0008.51,0002.42,0001.06
2022-06-07 04:25:00,,0823.8,5.00,0.00,29.6,27.7,00.0,38.5,31.3,20.7,0000.0,0008.46,0002.37,0001.06
2022-06-07 04:26:00,,0823.8,5.00,0.00,29.5,27.8,00.0,38.5,31.3,20.7,0000.0,0008.35,0002.35,0001.06
2022-06-07 04:27:00,,0823.8,5.01,0.00,29.5,27.9,00.0,38.5,31.4,20.7,0000.0,0007.91,0002.39,0001.06
2022-06-07 04:28:00,,0823.7,5.00,0.00,29.5,28.0,00.0,38.5,31.4,20.6,0000.0,0007.62,0002.43,0001.04
2022-06-07 04:29:00,,0823.7,5.00,0.00,29.5,28.1,00.0,38.5,31.4,20.5,0000.0,0007.50,0002.34,0001.03
2022-06-07 04:30:00,,0823.7,5.01,0.00,29.5,28.2,00.0,38.5,31.4,20.5,0000.0,0007.51,0002.33,0001.03
2022-06-07 04:31:00,,0823.7,5.00,0.00,29.5,28.3,00.0,38.5,31.4,20.6,0000.0,0006.71,0002.35,0001.03
2022-06-07 04:32:00,,0823.7,5.00,0.00,29.6,28.3,00.0,38.5,31.4,20.6,0000.0,0005.74,0002.35,0001.02
2022-06-07 04:33:00,,0823.7,5.00,0.00,29.6,28.4,00.0,38.5,31.5,20.6,0000.0,0006.19,0002.33,0001.01
2022-06-07 04:34:00,,0823.6,5.01,0.00,29.6,28.4,00.0,38.5,31.5,20.7,0000.0,0006.19,0002.31,0001.00
2022-06-07 04:35:00,,0823.7,4.99,0.00,29.6,28.4,00.0,38.5,31.5,20.7,0000.0,0005.80,0002.27,0000.99
2022-06-07 04:36:00,,0823.6,5.01,0.00,29.6,28.5,00.0,38.5,31.5,20.7,0000.0,0005.88,0002.28,0001.00
2022-06-07 04:37:00,,0823.7,5.01,0.00,29.6,28.5,00.0,38.5,31.5,20.7,0000.0,0006.21,0002.36,0001.03
2022-06-07 04:38:00,,0823.6,4.99,0.00,29.6,28.5,00.0,38.5,31.5,20.6,0000.0,0007.03,0002.42,0001.03
2022-06-07 04:39:00,,0823.7,5.00,0.00,29.7,28.6,00.0,38.5,31.5,20.6,0000.0,0007.92,0002.44,0001.04
2022-06-07 04:40:00,,0823.7,5.00,0.00,29.7,28.6,00.0,38.5,31.6,20.5,0000.0,0008.19,0002.48,0001.06
2022-06-07 04:41:00,,0823.6,5.00,0.00,29.7,28.6,00.0,38.5,31.6,20.5,0000.0,0008.39,0002.63,0001.08
2022-06-07 04:42:00,,0823.7,5.00,0.00,29.7,28.6,00.0,38.5,31.6,20.6,0000.0,0008.44,0002.67,0001.11
2022-06-07 04:43:00,,0823.7,5.00,0.00,29.7,28.6,00.0,38.5,31.6,20.7,0000.0,0008.56,0002.70,0001.14
2022-06-07 04:44:00,,0823.7,4.99,0.00,29.7,28.6,00.0,38.6,31.6,20.7,0000.0,0008.43,0002.77,0001.15
2022-06-07 04:45:00,,0823.8,4.99,0.00,29.7,28.7,00.0,38.6,31.6,20.6,0000.0,0009.32,0002.86,0001.17
2022-06-07 04:46:00,,0823.8,4.99,0.00,29.7,28.7,00.0,38.6,31.6,20.6,0000.0,0009.82,0002.89,0001.19
2022-06-07 04:47:00,,0823.8,5.01,0.00,29.7,28.7,00.0,38.6,31.7,20.7,0000.0,0009.78,0002.87,0001.19
2022-06-07 04:48:00,,0823.7,5.00,0.00,29.8,28.7,00.0,38.6,31.7,21.0,0000.0,0009.68,0002.83,0001.18
2022-06-07 04:49:00,,0823.6,4.99,0.00,29.8,28.7,00.0,38.6,31.7,20.9,0000.0,0009.36,0002.81,0001.19
2022-06-07 04:50:00,,0823.6,5.01,0.00,29.8,28.7,00.0,38.6,31.7,21.0,0000.0,0008.51,0002.81,0001.20
2022-06-07 04:51:00,,0823.6,5.00,0.00,29.8,28.8,00.0,38.6,31.7,21.0,0000.0,0008.17,0002.80,0001.20
2022-06-07 04:52:00,,0823.7,5.00,0.00,29.8,28.8,00.0,38.6,31.7,20.9,0000.0,0008.03,0002.70,0001.20
2022-06-07 04:53:00,,0823.7,4.98,0.00,29.8,28.8,00.0,38.6,31.7,20.9,0000.0,0008.10,0002.66,0001.21
2022-06-07 04:54:00,,0823.7,5.00,0.00,29.8,28.8,00.0,38.7,31.7,21.4,0000.0,0008.01,0002.65,0001.22
2022-06-07 04:55:00,,0823.6,5.00,0.00,29.8,28.8,00.0,38.7,31.7,21.5,0000.0,0007.95,0002.65,0001.23
2022-06-07 04:56:00,,0823.6,5.00,0.00,29.8,28.8,00.0,38.7,31.7,21.1,0000.0,0007.18,0002.61,0001.25
2022-06-07 04:57:00,,0823.6,5.01,0.00,29.8,28.8,00.0,38.7,31.7,20.8,0000.0,0005.94,0002.61,0001.25
2022-06-07 04:58:00,,0823.7,4.99,0.00,29.8,28.8,00.0,38.7,31.7,20.7,0000.0,0006.05,0002.69,0001.25
2022-06-07 04:59:00,,0823.6,4.99,0.00,29.9,28.8,00.0,38.7,31.7,20.8,0000.0,0006.31,0002.78,0001.27
